Home > Weather > Clarksville > Past weeks

Flag for USA Past Weather in Clarksville, Tennessee, USA — Yesterday and Last 2 Weeks

Now
72 °F

Light rain. Overcast.


Feels Like: 68 °F
Forecast: 73 / 79 °F
Wind: 5 mph from Northeast

Location: Outlaw Field

Current Time: Jul 28, 2016 at 1:57:58 AM

Latest Report: Jul 28, 2016 at 12:52 AM


Visibility: 10 mi

Pressure: 29.93 "Hg

Humidity: 93%

Dew Point: 70 °F

Location of ClarksvilleLocation

Past Weather in Clarksville — Graph

°F

Clarksville Temperature Yesterday

Maximum temperature yesterday: 92 °F (at 3:01 PM)
Minimum temperature yesterday: 72 °F (at 11:52 PM)
Average temperature yesterday: 80 °F

High & Low Weather Summary for the Past Weeks

 TemperatureHumidityPressure
High92 °F (Jul 18, 1:52 PM)97% (Jul 15, 4:52 AM)30.22 "Hg (Jul 15, 4:52 AM)
Low69 °F (Jul 14, 10:52 PM)46% (Jul 15, 5:52 PM)29.86 "Hg (Jul 27, 5:52 PM)
Average81 °F77%30.04 "Hg
* Reported Jul 13 12:52 AM — Jul 28 12:52 AM, Clarksville, Weather by CustomWeather, © 2016

Note: Actual official high and low records may vary slightly from our data, if they occured in-between our weather recording intervals... More about our weather records

Advertising

Clarksville Weather History for the Previous 24 Hours

Scroll right to see more
 ConditionsComfort  
Time TempWeatherWind HumidityBarometerVisibility
12:52 AM
Thu, Jul 28
72 °FLight rain. Overcast.5 mph93%29.93 "Hg10 mi
11:52 PM
Wed, Jul 27
72 °FStrong thunderstorms. Fog.6 mph93%29.96 "Hg2 mi
10:59 PM74 °FThunderstorms. Low clouds.5 mph91%29.96 "Hg8 mi
10:52 PM73 °FThundershowers. Fog.No wind94%29.93 "Hg6 mi
9:57 PM74 °FLight rain. Mostly cloudy.14 mph91%29.97 "Hg10 mi
9:03 PM77 °FThunderstorms. Mostly cloudy.13 mph85%29.94 "Hg10 mi
8:52 PM78 °FThundershowers. Overcast.10 mph84%29.91 "Hg10 mi
7:52 PM83 °FPartly sunny.6 mph82%29.89 "Hg10 mi
6:52 PM84 °FPartly sunny.No wind83%29.89 "Hg10 mi
5:52 PM83 °FSunny.No wind82%29.86 "Hg10 mi
4:52 PM84 °FPassing clouds.3 mph77%29.90 "Hg10 mi
3:52 PM81 °FThunderstorms. Broken clouds.7 mph77%29.90 "Hg10 mi
3:01 PM92 °FThundershowers. Broken clouds.No wind56%29.92 "Hg10 mi
2:52 PM91 °FBroken clouds.3 mph57%29.91 "Hg10 mi
1:52 PM88 °FPassing clouds.No wind63%29.94 "Hg10 mi
12:52 PM88 °FScattered clouds.6 mph65%29.97 "Hg10 mi
11:52 AM88 °FSunny.5 mph65%29.98 "Hg10 mi
10:52 AM86 °FSunny.3 mph70%29.98 "Hg10 mi
9:52 AM83 °FSunny.3 mph74%29.98 "Hg10 mi
8:52 AM80 °FSunny.5 mph79%29.99 "Hg10 mi
7:52 AM77 °FPartly sunny.No wind90%29.99 "Hg8 mi
6:52 AM75 °FScattered clouds.No wind94%29.99 "Hg8 mi
5:52 AM75 °FFog.No wind94%29.97 "Hg6 mi
4:52 AM74 °FClear.No wind94%29.95 "Hg9 mi
3:52 AM75 °FClear.No wind94%29.94 "Hg7 mi
2:52 AM74 °FFog.No wind94%29.94 "Hg6 mi
1:52 AM76 °FPassing clouds.5 mph91%29.96 "Hg10 mi
Weather by CustomWeather, © 2016

See weather overviewHow to use our weather pages